TimeEDT,TemperatureF,Dew PointF,Humidity,Sea Level PressureIn,VisibilityMPH,Wind Direction,Wind SpeedMPH,Gust SpeedMPH,PrecipitationIn,Events,Conditions,WindDirDegrees,DateUTC
12:15 AM,62.6,61.7,97,29.91,7.0,Calm,Calm,-,N/A,,Unknown,0,2013-06-08 04:15:00
12:35 AM,63.0,62.4,98,29.90,5.0,East,4.6,-,N/A,Rain,Light Rain,90,2013-06-08 04:35:00
12:55 AM,62.8,62.2,98,29.90,5.0,Calm,Calm,-,N/A,,Mist,0,2013-06-08 04:55:00
1:15 AM,62.6,61.5,96,29.91,7.0,West,5.8,-,N/A,,Unknown,280,2013-06-08 05:15:00
1:35 AM,62.4,61.7,97,29.91,7.0,WSW,3.5,-,N/A,,Unknown,240,2013-06-08 05:35:00
1:55 AM,62.1,61.2,97,29.91,7.0,Calm,Calm,-,N/A,,Unknown,0,2013-06-08 05:55:00
2:15 AM,62.6,61.5,96,29.92,7.0,Calm,Calm,-,N/A,,Unknown,0,2013-06-08 06:15:00
2:35 AM,62.1,61.2,97,29.92,7.0,Calm,Calm,-,N/A,,Unknown,0,2013-06-08 06:35:00
2:55 AM,62.1,61.2,97,29.91,7.0,Calm,Calm,-,N/A,,Unknown,0,2013-06-08 06:55:00
3:15 AM,62.4,61.3,96,29.91,7.0,Calm,Calm,-,N/A,,Unknown,0,2013-06-08 07:15:00
3:35 AM,62.2,61.2,96,29.91,7.0,Calm,Calm,-,N/A,,Unknown,0,2013-06-08 07:35:00
3:55 AM,62.1,61.0,96,29.92,7.0,Calm,Calm,-,N/A,,Unknown,0,2013-06-08 07:55:00
4:15 AM,62.1,61.2,97,29.93,7.0,Calm,Calm,-,N/A,,Unknown,0,2013-06-08 08:15:00
4:35 AM,61.9,60.8,96,29.93,7.0,Calm,Calm,-,N/A,,Unknown,0,2013-06-08 08:35:00
4:55 AM,62.1,61.0,96,29.94,7.0,Calm,Calm,-,N/A,,Unknown,0,2013-06-08 08:55:00
5:15 AM,61.3,60.4,97,29.94,7.0,Calm,Calm,-,N/A,,Unknown,0,2013-06-08 09:15:00
5:35 AM,61.3,60.3,96,29.95,7.0,Calm,Calm,-,N/A,,Unknown,0,2013-06-08 09:35:00
5:55 AM,61.0,60.1,97,29.96,7.0,Calm,Calm,-,N/A,,Unknown,0,2013-06-08 09:55:00
6:15 AM,60.6,59.9,97,29.96,5.0,NW,3.5,-,N/A,,Mist,310,2013-06-08 10:15:00
6:35 AM,60.4,59.5,97,29.97,7.0,Calm,Calm,-,N/A,,Unknown,0,2013-06-08 10:35:00
6:55 AM,60.4,59.9,98,29.98,4.0,Calm,Calm,-,N/A,,Mist,0,2013-06-08 10:55:00
7:15 AM,60.8,59.9,97,29.99,4.0,East,3.5,-,N/A,,Mist,100,2013-06-08 11:15:00
7:35 AM,60.8,59.7,96,29.99,5.0,Calm,Calm,-,N/A,,Mist,0,2013-06-08 11:35:00
7:55 AM,61.0,59.9,96,30.00,5.0,Calm,Calm,-,N/A,,Mist,0,2013-06-08 11:55:00
8:15 AM,61.2,60.1,96,30.01,4.0,East,3.5,-,N/A,,Mist,100,2013-06-08 12:15:00
8:35 AM,61.0,60.1,97,30.03,4.0,Calm,Calm,-,N/A,,Mist,0,2013-06-08 12:35:00
8:55 AM,61.5,60.4,96,30.04,4.0,Calm,Calm,-,N/A,,Mist,0,2013-06-08 12:55:00
9:15 AM,61.2,60.1,96,30.05,4.0,Calm,Calm,-,N/A,,Mist,0,2013-06-08 13:15:00
9:35 AM,61.7,60.3,95,30.05,5.0,Calm,Calm,-,N/A,,Mist,0,2013-06-08 13:35:00
9:55 AM,62.8,60.6,93,30.05,7.0,Calm,Calm,-,N/A,,Unknown,0,2013-06-08 13:55:00
10:15 AM,63.9,60.8,90,30.05,7.0,ENE,4.6,-,N/A,,Unknown,60,2013-06-08 14:15:00
10:35 AM,64.2,60.8,89,30.06,10.0,WSW,3.5,-,N/A,,Unknown,250,2013-06-08 14:35:00
10:55 AM,65.3,61.7,88,30.06,7.0,WSW,4.6,-,N/A,,Unknown,240,2013-06-08 14:55:00
11:15 AM,66.4,61.2,83,30.06,10.0,Calm,Calm,-,N/A,,Unknown,0,2013-06-08 15:15:00
11:35 AM,67.8,61.9,81,30.06,10.0,Calm,Calm,-,N/A,,Unknown,0,2013-06-08 15:35:00
11:55 AM,69.8,62.6,78,30.06,10.0,Calm,Calm,-,N/A,,Unknown,0,2013-06-08 15:55:00
12:15 PM,72.5,63.9,74,30.06,10.0,Calm,Calm,-,N/A,,Unknown,0,2013-06-08 16:15:00
12:35 PM,72.9,63.5,72,30.06,10.0,Calm,Calm,-,N/A,,Unknown,0,2013-06-08 16:35:00
12:55 PM,74.8,63.1,67,30.06,10.0,SW,3.5,-,N/A,,Unknown,220,2013-06-08 16:55:00
1:15 PM,76.3,63.5,64,30.06,10.0,SSW,8.1,-,N/A,,Unknown,210,2013-06-08 17:15:00
1:35 PM,76.3,62.6,62,30.06,10.0,WSW,6.9,-,N/A,,Unknown,240,2013-06-08 17:35:00
1:55 PM,77.0,62.1,60,30.05,10.0,SW,5.8,-,N/A,,Unknown,220,2013-06-08 17:55:00
2:15 PM,78.4,63.1,59,30.05,10.0,SW,8.1,-,N/A,,Unknown,230,2013-06-08 18:15:00
2:35 PM,78.6,62.8,58,30.05,10.0,WSW,8.1,16.1,N/A,,Unknown,240,2013-06-08 18:35:00
2:55 PM,77.9,61.9,58,30.04,10.0,WSW,9.2,-,N/A,,Unknown,250,2013-06-08 18:55:00
3:15 PM,78.6,61.7,56,30.04,10.0,SW,3.5,-,N/A,,Unknown,230,2013-06-08 19:15:00
3:35 PM,79.7,61.7,54,30.04,10.0,WSW,8.1,-,N/A,,Unknown,240,2013-06-08 19:35:00
3:55 PM,79.3,60.8,53,30.04,10.0,WSW,8.1,-,N/A,,Unknown,250,2013-06-08 19:55:00
4:15 PM,77.7,60.8,56,30.04,10.0,SW,6.9,-,N/A,,Unknown,230,2013-06-08 20:15:00
4:35 PM,79.0,62.1,56,30.04,10.0,West,8.1,-,N/A,,Unknown,260,2013-06-08 20:35:00
4:55 PM,78.1,62.4,58,30.04,10.0,South,4.6,-,N/A,,Unknown,190,2013-06-08 20:55:00
5:15 PM,77.4,60.8,57,30.05,10.0,SW,4.6,-,N/A,,Unknown,230,2013-06-08 21:15:00
5:35 PM,77.0,62.4,61,30.05,10.0,SW,4.6,-,N/A,,Unknown,220,2013-06-08 21:35:00
5:55 PM,76.1,62.6,63,30.05,10.0,SW,3.5,-,N/A,,Unknown,220,2013-06-08 21:55:00
6:15 PM,77.0,63.0,62,30.04,10.0,Calm,Calm,-,N/A,,Unknown,0,2013-06-08 22:15:00
6:35 PM,77.5,61.7,58,30.04,10.0,Calm,Calm,-,N/A,,Unknown,0,2013-06-08 22:35:00
6:55 PM,77.4,61.2,57,30.05,10.0,SW,3.5,-,N/A,,Unknown,230,2013-06-08 22:55:00
7:15 PM,76.6,61.7,60,30.06,10.0,Calm,Calm,-,N/A,,Unknown,0,2013-06-08 23:15:00
7:35 PM,74.7,62.8,66,30.06,10.0,Calm,Calm,-,N/A,,Unknown,0,2013-06-08 23:35:00
7:55 PM,73.2,63.7,72,30.07,10.0,Calm,Calm,-,N/A,,Unknown,0,2013-06-08 23:55:00
8:15 PM,71.4,64.6,79,30.07,10.0,NNW,5.8,-,N/A,,Unknown,330,2013-06-09 00:15:00
8:35 PM,70.7,63.9,79,30.08,10.0,NNW,3.5,-,N/A,,Unknown,330,2013-06-09 00:35:00
8:55 PM,68.7,64.0,85,30.09,10.0,NNW,4.6,-,N/A,,Unknown,340,2013-06-09 00:55:00
9:15 PM,67.8,63.0,84,30.10,10.0,North,4.6,-,N/A,,Unknown,350,2013-06-09 01:15:00
9:35 PM,66.2,62.8,89,30.11,10.0,Calm,Calm,-,N/A,,Unknown,0,2013-06-09 01:35:00
9:55 PM,64.9,62.2,91,30.12,10.0,Calm,Calm,-,N/A,,Unknown,0,2013-06-09 01:55:00
10:15 PM,64.4,61.9,92,30.13,10.0,Calm,Calm,-,N/A,,Unknown,0,2013-06-09 02:15:00
10:35 PM,63.7,61.7,93,30.13,10.0,Calm,Calm,-,N/A,,Unknown,0,2013-06-09 02:35:00
10:55 PM,62.8,61.3,95,30.14,7.0,Calm,Calm,-,N/A,,Unknown,0,2013-06-09 02:55:00
11:15 PM,63.0,61.0,93,30.15,10.0,Calm,Calm,-,N/A,,Unknown,0,2013-06-09 03:15:00
11:35 PM,62.2,61.0,96,30.15,7.0,Calm,Calm,-,N/A,,Unknown,0,2013-06-09 03:35:00
11:55 PM,61.9,60.8,96,30.15,7.0,Calm,Calm,-,N/A,,Unknown,0,2013-06-09 03:55:00